Time,TemperatureF,DewpointF,PressureIn,WindDirection,WindDirectionDegrees,WindSpeedMPH,WindSpeedGustMPH,Humidity,HourlyPrecipIn,Conditions,Clouds,dailyrainin,SoftwareType,DateUTC
2013-01-13 00:00:00,33.0,-99.9,-100.00,North,-999,-999.0,-999.0,-999,0.00,,,0.54,,2013-01-13 05:00:00,
2013-01-13 00:23:00,33.0,-99.9,-100.00,North,-999,-999.0,-999.0,-999,0.00,,,0.54,,2013-01-13 05:23:00,
2013-01-13 00:33:00,33.0,-99.9,-100.00,North,-999,-999.0,-999.0,-999,0.00,,,0.54,,2013-01-13 05:33:00,
2013-01-13 00:43:00,33.0,-99.9,-100.00,North,-999,-999.0,-999.0,-999,0.00,,,0.54,,2013-01-13 05:43:00,
2013-01-13 00:53:00,33.0,-99.9,-100.00,North,-999,-999.0,-999.0,-999,0.00,,,0.54,,2013-01-13 05:53:00,
2013-01-13 01:00:00,33.0,-99.9,-100.00,North,-999,-999.0,-999.0,-999,0.00,,,0.54,,2013-01-13 06:00:00,
2013-01-13 01:22:00,33.0,-99.9,-100.00,North,-999,-999.0,-999.0,-999,0.00,,,0.54,,2013-01-13 06:22:00,
2013-01-13 01:43:00,33.0,-99.9,-100.00,North,-999,-999.0,-999.0,-999,0.00,,,0.54,,2013-01-13 06:43:00,
2013-01-13 01:53:00,33.0,-99.9,-100.00,North,-999,-999.0,-999.0,-999,0.00,,,0.54,,2013-01-13 06:53:00,
2013-01-13 02:00:00,35.0,-99.9,-100.00,North,-999,-999.0,-999.0,-999,0.00,,,0.54,,2013-01-13 07:00:00,
2013-01-13 02:22:00,35.0,-99.9,-100.00,North,-999,-999.0,-999.0,-999,0.00,,,0.54,,2013-01-13 07:22:00,
2013-01-13 02:33:00,35.0,-99.9,-100.00,North,-999,-999.0,-999.0,-999,0.00,,,0.54,,2013-01-13 07:33:00,
2013-01-13 02:43:00,35.0,-99.9,-100.00,North,-999,-999.0,-999.0,-999,0.00,,,0.54,,2013-01-13 07:43:00,
2013-01-13 02:53:00,35.0,-99.9,-100.00,North,-999,-999.0,-999.0,-999,0.00,,,0.54,,2013-01-13 07:53:00,
2013-01-13 03:00:00,35.0,-99.9,-100.00,North,-999,-999.0,-999.0,-999,0.00,,,0.54,,2013-01-13 08:00:00,
2013-01-13 03:33:00,35.0,-99.9,-100.00,North,-999,-999.0,-999.0,-999,0.00,,,0.54,,2013-01-13 08:33:00,
2013-01-13 03:42:00,35.0,-99.9,-100.00,North,-999,-999.0,-999.0,-999,0.00,,,0.54,,2013-01-13 08:42:00,
2013-01-13 03:53:00,35.0,-99.9,-100.00,North,-999,-999.0,-999.0,-999,0.00,,,0.54,,2013-01-13 08:53:00,
2013-01-13 04:00:00,35.0,-99.9,-100.00,North,-999,-999.0,-999.0,-999,0.00,,,0.52,,2013-01-13 09:00:00,
2013-01-13 04:33:00,35.0,-99.9,-100.00,North,-999,-999.0,-999.0,-999,0.00,,,0.52,,2013-01-13 09:33:00,
2013-01-13 04:43:00,35.0,-99.9,-100.00,North,-999,-999.0,-999.0,-999,0.00,,,0.52,,2013-01-13 09:43:00,
2013-01-13 04:53:00,35.0,-99.9,-100.00,North,-999,-999.0,-999.0,-999,0.00,,,0.52,,2013-01-13 09:53:00,
2013-01-13 05:00:00,35.0,-99.9,-100.00,North,-999,-999.0,-999.0,-999,0.00,,,0.52,,2013-01-13 10:00:00,
2013-01-13 05:22:00,35.0,-99.9,-100.00,North,-999,-999.0,-999.0,-999,0.00,,,0.52,,2013-01-13 10:22:00,
2013-01-13 05:33:00,35.0,-99.9,-100.00,North,-999,-999.0,-999.0,-999,0.00,,,0.52,,2013-01-13 10:33:00,
2013-01-13 05:42:00,35.0,-99.9,-100.00,North,-999,-999.0,-999.0,-999,0.00,,,0.52,,2013-01-13 10:42:00,
2013-01-13 05:53:00,35.0,-99.9,-100.00,North,-999,-999.0,-999.0,-999,0.00,,,0.52,,2013-01-13 10:53:00,
2013-01-13 06:00:00,34.0,-99.9,-100.00,North,-999,-999.0,-999.0,-999,0.00,,,0.51,,2013-01-13 11:00:00,
2013-01-13 06:33:00,34.0,-99.9,-100.00,North,-999,-999.0,-999.0,-999,0.00,,,0.51,,2013-01-13 11:33:00,
2013-01-13 06:43:00,34.0,-99.9,-100.00,North,-999,-999.0,-999.0,-999,0.00,,,0.51,,2013-01-13 11:43:00,
2013-01-13 06:53:00,34.0,-99.9,-100.00,North,-999,-999.0,-999.0,-999,0.00,,,0.51,,2013-01-13 11:53:00,
2013-01-13 07:00:00,33.0,-99.9,-100.00,North,-999,-999.0,-999.0,-999,0.00,,,0.51,,2013-01-13 12:00:00,
2013-01-13 07:23:00,33.0,-99.9,-100.00,North,-999,-999.0,-999.0,-999,0.00,,,0.51,,2013-01-13 12:23:00,
2013-01-13 07:33:00,33.0,-99.9,-100.00,North,-999,-999.0,-999.0,-999,0.00,,,0.51,,2013-01-13 12:33:00,
2013-01-13 07:43:00,33.0,-99.9,-100.00,North,-999,-999.0,-999.0,-999,0.00,,,0.51,,2013-01-13 12:43:00,
2013-01-13 07:53:00,33.0,-99.9,-100.00,North,-999,-999.0,-999.0,-999,0.00,,,0.51,,2013-01-13 12:53:00,
2013-01-13 08:00:00,33.0,-99.9,-100.00,North,-999,-999.0,-999.0,-999,0.00,,,0.50,,2013-01-13 13:00:00,
2013-01-13 08:33:00,33.0,-99.9,-100.00,North,-999,-999.0,-999.0,-999,0.00,,,0.50,,2013-01-13 13:33:00,
2013-01-13 08:53:00,33.0,-99.9,-100.00,North,-999,-999.0,-999.0,-999,0.00,,,0.50,,2013-01-13 13:53:00,
2013-01-13 09:00:00,34.0,-99.9,-100.00,North,-999,-999.0,-999.0,-999,0.00,,,0.48,,2013-01-13 14:00:00,
2013-01-13 09:53:00,34.0,-99.9,-100.00,North,-999,-999.0,-999.0,-999,0.00,,,0.48,,2013-01-13 14:53:00,
2013-01-13 10:00:00,37.0,-99.9,-100.00,North,-999,-999.0,-999.0,-999,0.00,,,0.46,,2013-01-13 15:00:00,
2013-01-13 10:34:00,37.0,-99.9,-100.00,North,-999,-999.0,-999.0,-999,0.00,,,0.46,,2013-01-13 15:34:00,
2013-01-13 10:43:00,37.0,-99.9,-100.00,North,-999,-999.0,-999.0,-999,0.00,,,0.46,,2013-01-13 15:43:00,
2013-01-13 10:53:00,37.0,-99.9,-100.00,North,-999,-999.0,-999.0,-999,0.00,,,0.46,,2013-01-13 15:53:00,
2013-01-13 11:00:00,45.0,-99.9,-100.00,North,-999,-999.0,-999.0,-999,0.00,,,0.43,,2013-01-13 16:00:00,
2013-01-13 11:23:00,45.0,-99.9,-100.00,North,-999,-999.0,-999.0,-999,0.00,,,0.43,,2013-01-13 16:23:00,
2013-01-13 11:34:00,45.0,-99.9,-100.00,North,-999,-999.0,-999.0,-999,0.00,,,0.43,,2013-01-13 16:34:00,
2013-01-13 11:43:00,45.0,-99.9,-100.00,North,-999,-999.0,-999.0,-999,0.00,,,0.43,,2013-01-13 16:43:00,
2013-01-13 11:53:00,45.0,-99.9,-100.00,North,-999,-999.0,-999.0,-999,0.00,,,0.43,,2013-01-13 16:53:00,
2013-01-13 12:00:00,53.0,-99.9,-100.00,North,-999,-999.0,-999.0,-999,0.00,,,0.38,,2013-01-13 17:00:00,
2013-01-13 12:33:00,53.0,-99.9,-100.00,North,-999,-999.0,-999.0,-999,0.00,,,0.38,,2013-01-13 17:33:00,
2013-01-13 12:43:00,53.0,-99.9,-100.00,North,-999,-999.0,-999.0,-999,0.00,,,0.38,,2013-01-13 17:43:00,
2013-01-13 12:53:00,53.0,-99.9,-100.00,North,-999,-999.0,-999.0,-999,0.00,,,0.38,,2013-01-13 17:53:00,
2013-01-13 13:00:00,50.0,-99.9,-100.00,North,-999,-999.0,-999.0,-999,0.00,,,0.24,,2013-01-13 18:00:00,
2013-01-13 13:23:00,50.0,-99.9,-100.00,North,-999,-999.0,-999.0,-999,0.00,,,0.24,,2013-01-13 18:23:00,
2013-01-13 13:33:00,50.0,-99.9,-100.00,North,-999,-999.0,-999.0,-999,0.00,,,0.24,,2013-01-13 18:33:00,
2013-01-13 13:43:00,50.0,-99.9,-100.00,North,-999,-999.0,-999.0,-999,0.00,,,0.24,,2013-01-13 18:43:00,
2013-01-13 13:54:00,50.0,-99.9,-100.00,North,-999,-999.0,-999.0,-999,0.00,,,0.24,,2013-01-13 18:54:00,
2013-01-13 14:00:00,47.0,-99.9,-100.00,North,-999,-999.0,-999.0,-999,0.00,,,0.11,,2013-01-13 19:00:00,
2013-01-13 14:33:00,47.0,-99.9,-100.00,North,-999,-999.0,-999.0,-999,0.00,,,0.11,,2013-01-13 19:33:00,
2013-01-13 14:53:00,47.0,-99.9,-100.00,North,-999,-999.0,-999.0,-999,0.00,,,0.11,,2013-01-13 19:53:00,
2013-01-13 15:00:00,47.0,-99.9,-100.00,North,-999,-999.0,-999.0,-999,0.00,,,0.04,,2013-01-13 20:00:00,
2013-01-13 15:23:00,47.0,-99.9,-100.00,North,-999,-999.0,-999.0,-999,0.00,,,0.04,,2013-01-13 20:23:00,
2013-01-13 15:33:00,47.0,-99.9,-100.00,North,-999,-999.0,-999.0,-999,0.00,,,0.04,,2013-01-13 20:33:00,
2013-01-13 15:44:00,47.0,-99.9,-100.00,North,-999,-999.0,-999.0,-999,0.00,,,0.04,,2013-01-13 20:44:00,
2013-01-13 15:54:00,47.0,-99.9,-100.00,North,-999,-999.0,-999.0,-999,0.00,,,0.04,,2013-01-13 20:54:00,
2013-01-13 16:00:00,45.0,-99.9,-100.00,North,-999,-999.0,-999.0,-999,0.00,,,0.01,,2013-01-13 21:00:00,
2013-01-13 16:23:00,45.0,-99.9,-100.00,North,-999,-999.0,-999.0,-999,0.00,,,0.01,,2013-01-13 21:23:00,
2013-01-13 16:33:00,45.0,-99.9,-100.00,North,-999,-999.0,-999.0,-999,0.00,,,0.01,,2013-01-13 21:33:00,
2013-01-13 16:43:00,45.0,-99.9,-100.00,North,-999,-999.0,-999.0,-999,0.00,,,0.01,,2013-01-13 21:43:00,
2013-01-13 16:53:00,45.0,-99.9,-100.00,North,-999,-999.0,-999.0,-999,0.00,,,0.01,,2013-01-13 21:53:00,
2013-01-13 17:00:00,41.0,-99.9,-100.00,North,-999,-999.0,-999.0,-999,0.00,,,0.01,,2013-01-13 22:00:00,
2013-01-13 17:23:00,41.0,-99.9,-100.00,North,-999,-999.0,-999.0,-999,0.00,,,0.01,,2013-01-13 22:23:00,
2013-01-13 17:33:00,41.0,-99.9,-100.00,North,-999,-999.0,-999.0,-999,0.00,,,0.01,,2013-01-13 22:33:00,
2013-01-13 17:43:00,41.0,-99.9,-100.00,North,-999,-999.0,-999.0,-999,0.00,,,0.01,,2013-01-13 22:43:00,
2013-01-13 17:53:00,41.0,-99.9,-100.00,North,-999,-999.0,-999.0,-999,0.00,,,0.01,,2013-01-13 22:53:00,
2013-01-13 18:00:00,39.0,-99.9,-100.00,North,-999,-999.0,-999.0,-999,0.00,,,0.00,,2013-01-13 23:00:00,
2013-01-13 18:23:00,39.0,-99.9,-100.00,North,-999,-999.0,-999.0,-999,0.00,,,0.00,,2013-01-13 23:23:00,
2013-01-13 18:43:00,39.0,-99.9,-100.00,North,-999,-999.0,-999.0,-999,0.00,,,0.00,,2013-01-13 23:43:00,
2013-01-13 18:53:00,39.0,-99.9,-100.00,North,-999,-999.0,-999.0,-999,0.00,,,0.00,,2013-01-13 23:53:00,
2013-01-13 19:00:00,37.0,-99.9,-100.00,North,-999,-999.0,-999.0,-999,0.00,,,0.00,,2013-01-14 00:00:00,
2013-01-13 19:23:00,37.0,-99.9,-100.00,North,-999,-999.0,-999.0,-999,0.00,,,0.00,,2013-01-14 00:23:00,
2013-01-13 19:43:00,37.0,-99.9,-100.00,North,-999,-999.0,-999.0,-999,0.00,,,0.00,,2013-01-14 00:43:00,
2013-01-13 19:53:00,37.0,-99.9,-100.00,North,-999,-999.0,-999.0,-999,0.00,,,0.00,,2013-01-14 00:53:00,
2013-01-13 20:00:00,37.0,-99.9,-100.00,North,-999,-999.0,-999.0,-999,0.00,,,0.00,,2013-01-14 01:00:00,
2013-01-13 20:33:00,37.0,-99.9,-100.00,North,-999,-999.0,-999.0,-999,0.00,,,0.00,,2013-01-14 01:33:00,
2013-01-13 20:53:00,37.0,-99.9,-100.00,North,-999,-999.0,-999.0,-999,0.00,,,0.00,,2013-01-14 01:53:00,
2013-01-13 21:00:00,36.0,-99.9,-100.00,North,-999,-999.0,-999.0,-999,0.00,,,0.00,,2013-01-14 02:00:00,
2013-01-13 21:33:00,36.0,-99.9,-100.00,North,-999,-999.0,-999.0,-999,0.00,,,0.00,,2013-01-14 02:33:00,
2013-01-13 21:43:00,36.0,-99.9,-100.00,North,-999,-999.0,-999.0,-999,0.00,,,0.00,,2013-01-14 02:43:00,
2013-01-13 21:53:00,36.0,-99.9,-100.00,North,-999,-999.0,-999.0,-999,0.00,,,0.00,,2013-01-14 02:53:00,
2013-01-13 22:00:00,35.0,-99.9,-100.00,North,-999,-999.0,-999.0,-999,0.00,,,0.00,,2013-01-14 03:00:00,
2013-01-13 22:22:00,35.0,-99.9,-100.00,North,-999,-999.0,-999.0,-999,0.00,,,0.00,,2013-01-14 03:22:00,
2013-01-13 22:33:00,35.0,-99.9,-100.00,North,-999,-999.0,-999.0,-999,0.00,,,0.00,,2013-01-14 03:33:00,
2013-01-13 22:43:00,35.0,-99.9,-100.00,North,-999,-999.0,-999.0,-999,0.00,,,0.00,,2013-01-14 03:43:00,
2013-01-13 22:53:00,35.0,-99.9,-100.00,North,-999,-999.0,-999.0,-999,0.00,,,0.00,,2013-01-14 03:53:00,
2013-01-13 23:00:00,35.0,-99.9,-100.00,North,-999,-999.0,-999.0,-999,0.00,,,0.00,,2013-01-14 04:00:00,
2013-01-13 23:33:00,35.0,-99.9,-100.00,North,-999,-999.0,-999.0,-999,0.00,,,0.00,,2013-01-14 04:33:00,
2013-01-13 23:42:00,35.0,-99.9,-100.00,North,-999,-999.0,-999.0,-999,0.00,,,0.00,,2013-01-14 04:42:00,
2013-01-13 23:53:00,35.0,-99.9,-100.00,North,-999,-999.0,-999.0,-999,0.00,,,0.00,,2013-01-14 04:53:00,